Regional Weather Roundup
Issued by NWS

Home | Current Version | Previous Version | Text Only | Print | Product List | Glossary Off
Versions: 1 2 3 4 5 6 7 8 9 10 11 12 13 14 15 16 17 18 19 20 21 22 23 24 25 26 27 28 29 30 31 32 33 34 35 36 37 38 39 40 41 42 43 44 45 46 47 48 49 50

000
ASUS43 KMPX 191101
RWRMN
WEATHER ROUNDUP FOR MINNESOTA
NATIONAL WEATHER SERVICE TWIN CITIES/CHANHASSEN MN
600 AM CDT FRI SEP 19 2014


NOTE: "FAIR" INDICATES FEW OR NO CLOUDS BELOW 12,000 FEET WITH NO
SIGNIFICANT WEATHER AND/OR OBSTRUCTIONS TO VISIBILITY. N/A MEANS
CURRENT SKY AND/OR WEATHER CONDITIONS ARE NOT AVAILABLE.

MNZ060>063-068>070-191200-
   Twin Cities Metro

CITY           SKY/WX    TMP DP  RH WIND       PRES   REMARKS
TWIN CITIES    MOCLDY    58  51  78 S9        29.95S
ST PAUL        PTCLDY    57  52  83 SE9       29.96S
CRYSTAL        MOCLDY    60  52  74 S12       29.92S
BLAINE         MOCLDY    61  54  77 S13G18    29.94R
LAKEVILLE      PTCLDY    55  52  88 S5        29.95F
EDEN PRAIRIE   MOCLDY    60  53  77 S14       29.94S
SOUTH ST PAUL  PTCLDY    58  51  77 S9        29.96S
LAKE ELMO      FAIR      55  52  88 S10       29.97S
$$
MNZ001>005-007-008-013>017-022>024-027-028-191200-
   Northwest Minnesota

CITY           SKY/WX    TMP DP  RH WIND       PRES   REMARKS
BEMIDJI        CLOUDY    60  52  75 S13G20    29.73F
HALLOCK        DRIZZLE   63  57  82 S15G23    29.55S
ROSEAU         DRIZZLE   61  55  82 S16       29.61R
WARROAD        RAIN      63  59  88 S10G20    29.61R
THIEF RVR FALL CLOUDY    64  55  72 S24G32    29.63S
CROOKSTON      CLOUDY    63  57  82 S22G30    29.63F
FOSSTON        CLOUDY    63  54  72 S24G35    29.69F
DETROIT LAKES  CLOUDY    63  54  72 S17       29.76S
MOORHEAD       CLOUDY    63  59  88 S16G25    29.70F
PARK RAPIDS    CLOUDY    60  52  74 S18       29.78F
MAHNOMEN       DRIZZLE   62  55  80 S21G28    29.72R
$$
MNZ006-009>011-018-025>026-191200-
   North Central Minnesota

CITY           SKY/WX    TMP DP  RH WIND       PRES   REMARKS
BAUDETTE       CLOUDY    61  54  77 S13       29.63F
FLAG ISLAND    LGT RAIN  57  55  94 S16       29.57R
INTL FALLS     CLOUDY    60  52  74 S13G24    29.69F
WASKISH        CLOUDY    63  55  77 SE10G17   29.66F
BIG FORK       LGT RAIN  59  52  77 S14G24    29.75S
LONGVILLE      CLOUDY    59  52  77 S16       29.79F
GRAND RAPIDS   CLOUDY    57  52  82 S20       29.81F
CRANE LAKE     MOCLDY    57  52  82 S10G25    29.76F
ORR            CLOUDY    57  50  77 S14G23    29.73R
COOK           MOCLDY    57  52  82 S13G26    29.78F
WALKER         FAIR      59  51  74 S16G23    29.76S
$$
MNZ012-019>021-037-191200-
   Northeast Minnesota

CITY           SKY/WX    TMP DP  RH WIND       PRES   REMARKS
DULUTH         CLOUDY    54  51  90 S9        29.91R FOG
ELY            MOCLDY    55  50  82 S15G24    29.82F
HIBBING        CLOUDY    57  52  83 S9G18     29.84F
EVELETH        CLOUDY    55  54  94 S14       29.86F
DULUTH HARBOR  CLOUDY    54  52  94 CALM      29.92S
TWO HARBORS    CLOUDY    46  41  81 CALM      29.90S HAZE
SILVER BAY     CLOUDY    45  45 100 CALM      29.90S FOG
GRAND MARAIS     N/A     50  47  89 CALM      29.93F
G MARAIS ARPRT DRZL/FOG  48  45  87 S8        29.92F VSB 1/2
$$
MNZ029>031-032-039>041-046>048-054>057-064-191200-
   West Central Minnesota

CITY           SKY/WX    TMP DP  RH WIND       PRES   REMARKS
FERGUS FALLS   CLOUDY    61  52  72 S16       29.78F
WHEATON        CLOUDY    61  54  77 S13G18    29.77F
MORRIS         CLOUDY    63  55  77 S9        29.82R
ALEXANDRIA     CLOUDY    60  54  80 S16G23    29.84S
ELBOW LAKE     CLOUDY    60  54  81 S16       29.80R
WADENA         CLOUDY    61  52  72 S15G23    29.79F
GLENWOOD       CLOUDY    59  55  88 S16G23    29.84R
APPLETON       CLOUDY    63  55  77 S8        29.83R
BENSON         CLOUDY    61  55  82 S10       29.82F
ORTONVILLE     DRIZZLE   63  55  77 S8        29.82R
MADISON        CLOUDY    64  57  77 SW15G23   29.83R
WILLMAR        MOCLDY    61  55  82 S6        29.87S
$$
MNZ033>034-036-042>043-049>051-058-059-191200-
   Central Minnesota

CITY           SKY/WX    TMP DP  RH WIND       PRES   REMARKS
ST CLOUD       CLOUDY    62  53  72 S14G23    29.88F
SAUK CENTRE    CLOUDY    58  54  85 S10       29.84F
PAYNESVILLE    CLOUDY    57  54  89 SE15G22   29.86F
AITKIN         CLOUDY    63  54  72 S16       29.83F
PINE RIVER     CLOUDY    57  52  82 S10       29.85F
BRAINERD       CLOUDY    58  52  80 S14G22    29.84F
STAPLES        CLOUDY    59  52  77 S13G22    29.82S
LONG PRAIRIE   CLOUDY    57  54  88 S13G18    29.84S
LITTLE FALLS   CLOUDY    59  52  77 S12       29.86F
LITCHFIELD     CLOUDY    61  57  88 S7        29.89F
BUFFALO        CLOUDY    58  52  80 SE7       29.91F
MAPLE LAKE     CLOUDY    60  55  84 S8        29.91F
$$
MNZ037-044-045-052-053-191200-
   East Central Minnesota

CITY           SKY/WX    TMP DP  RH WIND       PRES   REMARKS
PRINCETON      CLOUDY    59  54  82 S9        29.92R
MORA           CLOUDY    55  52  88 S5        29.94R
CAMBRIDGE      CLOUDY    61  50  67 S10       29.92R
RUSH CITY      CLOUDY    57  52  83 S9        29.94R
MOOSE LAKE     CLOUDY    55  52  88 S9        29.89S
HINCKLEY       FAIR      55  54  94 S7        29.93R
CLOQUET        CLOUDY    54  52  94 S7        29.90S
MCGREGOR       CLOUDY    57  54  88 S15       29.87F
$$
MNZ071>073-080-081-089-090-097-098-191200-
   Southwest Minnesota

CITY           SKY/WX    TMP DP  RH WIND       PRES   REMARKS
MONTEVIDEO     CLOUDY    63  57  82 SW13G18   29.83S
GRANITE FALLS  CLOUDY    61  56  86 S12       29.86F
CANBY          CLOUDY    62  56  82 S12G18    29.85R
MARSHALL       CLOUDY    63  54  72 S16G23    29.84F
REDWOOD FALLS  MOCLDY    63  57  81 S22G28    29.87F
OLIVIA         CLOUDY    61  55  82 S12       29.85F
PIPESTONE      CLOUDY    61  57  88 S13G20    29.86F
WINDOM         MOCLDY    61  55  82 S12G20    29.90S
WORTHINGTON    CLOUDY    59  55  88 S14G23    29.90S
JACKSON        CLOUDY    61  55  82 S13G18    29.92R
TRACY          MOCLDY    62  58  86 SW18G26   29.86F
SLAYTON        CLOUDY    60  57  91 S13G22    29.88F
$$
MNZ065>067-074>077-082>085-091>093-191200-
   South Central Minnesota

CITY           SKY/WX    TMP DP  RH WIND       PRES   REMARKS
MANKATO        PTCLDY    57  48  72 S9        29.94S
NEW ULM        CLOUDY    61  57  88 S13       29.90F
ST JAMES       CLOUDY    61  55  82 S14       29.92S
FAIRMONT       MOCLDY    57  48  72 S15       29.94R
GLENCOE        MOCLDY    58  52  79 S7        29.91F
FARIBAULT      PTCLDY    61  48  63 S9        29.97R
OWATONNA       CLEAR     57  48  72 S10G18    29.98R
WASECA         CLEAR     55  48  76 S13       29.98R
ALBERT LEA     CLEAR     57  48  72 S10G17    29.98S
$$
MNZ078>079-086>088-094>096-191200-
   Southeast Minnesota

CITY           SKY/WX    TMP DP  RH WIND       PRES   REMARKS
ROCHESTER      CLEAR     54  48  80 S13       30.01S
RED WING       CLEAR     57  50  77 SE5       29.99R
STANTON        MOCLDY    58  50  73 S12       29.96R
DODGE CENTER   CLEAR     55  50  82 S16G23    29.98S
WINONA         CLEAR     55  50  82 SE7       30.02F
AUSTIN         CLEAR     54  48  82 S9        29.99F
PRESTON        CLEAR     53  52  97 S14G20    30.02F
$$
ABBREVIATIONS USED IN REMARKS
   TC - TEMPERATURES IN CELSIUS
  WCI - WIND CHILL INDEX
   HX - HEAT INDEX
  VSB - VISIBILITY
$$



USA.gov is the U.S. government's official web portal to all federal, state and local government web resources and services.